Regional Weather Roundup
Issued by NWS Grand Forks, ND

Home | Current Version | Previous Version | Graphics & Text | Print | Product List | Glossary On
Versions: 1 2 3 4 5 6 7 8 9 10 11 12 13 14 15 16 17 18 19 20 21 22 23 24 25 26 27 28 29 30 31 32 33 34 35 36 37 38 39 40 41 42 43 44 45 46 47 48 49 50
000
ASUS43 KFGF 280931
RWRFGF
PRAIRIE TO PINES  WEATHER ROUNDUP
NATIONAL WEATHER SERVICE EASTERN NORTH DAKOTA/GRAND FORKS ND
400 AM CDT SUN AUG 28 2016

 **SATELLITE DATA USED TO AUGMENT SKY COVER AT AUTOMATED STATIONS**
 *****  WEATHER ACROSS EASTERN NORTH DAKOTA  *****

CITY           SKY/WX    TMP DP  RH WIND       PRES   REMARKS
GRAND FORKS    CLEAR     57  54  89 SE6       29.96S
GRAND FRKS AFB CLEAR     58  56  96 S5        29.96S
GRAND FRKS NWS   N/A     55 N/A N/A SE9         N/A
DEVILS LAKE    CLEAR     61  60  97 SE8       29.95S
FARGO          CLEAR     62  58  86 SE10      29.98S
WAHPETON ARPT  CLOUDY    61  57  88 SE10      30.02R
$$

 ***** WEATHER ACROSS CENTRAL AND WESTERN NORTH DAKOTA  *****

CITY           SKY/WX    TMP DP  RH WIND       PRES   REMARKS
BISMARCK       CLEAR     57  51  80 E8        29.90F
MINOT          CLEAR     56  50  80 E7        29.86S
JAMESTOWN      CLEAR     57  56  96 SE5       29.94F
MINOT AFB      CLEAR     54  49  82 SE8       29.85S
GARRISON         N/A     59  53  80 SE7       29.88S
WILLISTON      CLOUDY    65  46  50 S6        29.82R
DICKINSON      CLEAR     56  51  84 S8        29.87S
HETTINGER      CLEAR     60  52  74 SE6       29.89F
$$

 *****  OTHER AIRPORT OBSERVATIONS IN OUR AREA  *****

CITY           SKY/WX    TMP DP  RH WIND       PRES   REMARKS
WALHALLA       FAIR      55  55 100 CALM      29.95S
GRAFTON AIRPOR FAIR      52  52 100 CALM      29.98S
VALLEY CITY AR FAIR      59  59 100 S9        29.99R
CANDO          FAIR      54  54 100 SE7       29.95F FOG
CAVALIER APRT  FAIR      54  54 100 CALM      29.96S
GWINNER        FAIR      61  61 100 SE5       29.98S
SHEYENNE NWR     N/A     61  60  97 SE7       29.95S
ROLLA          FOG       55  55 100 S6        29.94F VSB 1/4
 ***** THE ABOVE OBSERVATIONS ARE NON NWS ARE NOT QUALITY
       CONTROLLED AND MAY MIS-REPORT RAIN FOR SNOW...
$$

  *****  WEATHER ACROSS NORTHERN MINNESOTA  *****

CITY           SKY/WX    TMP DP  RH WIND       PRES   REMARKS
FLAG ISLAND    MOCLDY    63  59  88 CALM      30.01S FOG
WARROAD        CLEAR     54  48  82 SE3       30.02F
ROSEAU         CLOUDY    52  46  82 CALM      30.01S HAZE
HALLOCK        CLEAR     55  54  94 SE7       29.97S
THF RVR FALLS  CLEAR     52  52 100 SE7       30.01F
BAUDETTE       FOG       53  53 100 SE5       30.03S VSB 1/4
WASKISH        FOG       57  57 100 CALM      30.04S VSB 1
CROOKSTON      CLEAR     55  54  94 SE8       30.00R
STEPHEN NDAWN    N/A     54  54 100 SE5         N/A
GREENBUSH NDAW   N/A     50  50 100 SE3         N/A
$$
  *****  WEATHER ACROSS CENTRAL AND WEST MINNESOTA  *****

CITY           SKY/WX    TMP DP  RH WIND       PRES   REMARKS
FOSSTON        CLEAR     55  55 100 SE5       30.03R
BEMIDJI        FOG       56  56 100 S6        30.05R VSB 3/4
PARK RAPIDS    FOG       60  58  92 S10       30.07R VSB 1
ELBOW LAKE     FAIR      63  61  94 S16       30.05R
WADENA         CLOUDY    59  57  94 S7        30.07R FOG
DETROIT LAKES  CLEAR     59  57  94 SE6       30.06R
MOORHEAD       CLEAR     61  57  88 S10       30.01R
FERGUS FALLS   CLOUDY    63  63 100 S10       30.05R
MORRIS MN      DRIZZLE   63  61  94 S5        30.05R
STAPLES        CLOUDY    57  57 100 S7        30.08R FOG
$$
  *****  WEATHER ELSEWHERE ACROSS MINNESOTA  *****

CITY           SKY/WX    TMP DP  RH WIND       PRES   REMARKS
DULUTH         MOCLDY    58  58 100 SW5       30.10S
INTRNTL FALLS  FOG       54  54 100 SW5       30.06S VSB 1
ELY            PTCLDY    54  52  94 CALM      30.10S
CLOQUET        CLOUDY    61  57  88 CALM      30.11R
WHEATON        CLOUDY    64  63  94 S10       30.05R
BRAINERD       FOG       59  59 100 SE5       30.08S VSB 3/4
HIBBING        FOG       52  52 100 CALM      30.09F VSB 1/2
ALEXANDRIA     CLOUDY    59  59 100 SE8       30.08R FOG
SAINT CLOUD    FOG       60  60 100 SE5       30.09R VSB 1/4
MINNEAPOLIS    PTCLDY    62  60  93 E7        30.10S FOG
$$

  *****  WEATHER ACROSS SOUTH DAKOTA  *****

CITY           SKY/WX    TMP DP  RH WIND       PRES   REMARKS
SIOUX FALLS    CLEAR     68  65  90 SE7       30.02S
BROOKINGS      CLEAR     64  62  93 SE10      30.03R
WATERTOWN      CLOUDY    68  63  84 SE9G18    30.02R
HURON          CLEAR     67  64  90 S12       29.94S
SISSETON         N/A     63  60  90 S12       29.99F
ABERDEEN       CLEAR     67  63  87 SE9       29.95R
MITCHELL       CLEAR     67  64  90 S9        29.97S
PIERRE         PTCLDY    69  61  75 S9        29.89F
MOBRIDGE       CLEAR     67  61  81 SE9       29.88S
RAPID CITY     CLEAR     59  52  77 SE9       29.92S
$$

  *****  SOME WEATHER IN NEARBY STATES *****

CITY           SKY/WX    TMP DP  RH WIND       PRES   REMARKS
GLASGOW MT     CLOUDY    63  45  51 SE6       29.77R
GREAT FALLS MT CLOUDY    71  37  28 SW15      29.84R
CHEYENNE WY    CLEAR     53  37  54 W9        30.18R
SCOTTSBLUFF NE CLEAR     61  54  77 E5        30.05R
OMAHA NE       PTCLDY    70  65  84 S5        30.06S
DES MOINES IA  CLOUDY    69  68  96 E5        30.09S
DAVENPORT IA   CLEAR     67  65  93 NE5       30.12S FOG
CHICAGO IL     CLOUDY    71  68  90 CALM      30.12S
EAU CLAIRE WI  CLOUDY    62  62 100 CALM      30.12R FOG
LA CROSSE WI   FOG       67  67 100 S7        30.11R VSB 1
$$

  *****  SOME NATIONAL WEATHER *****

CITY           SKY/WX    TMP DP  RH WIND       PRES   REMARKS
LA GUARDIA NY  PTCLDY    75  69  81 S5        30.22R
RALEIGH NC     PTCLDY    72  70  93 NE7       30.16S
ATLANTA GA     CLEAR     75  72  90 E9        30.12R
NEW ORLEANS LA PTCLDY    81  76  84 NE5       29.95S
OKLAHOMA CITY  CLEAR     71  69  93 CALM      30.05R
ALBUQUERQUE NM CLOUDY    60  51  72 CALM      30.22R
SALT LAKE CITY PTCLDY    70  31  23 S9        30.07R
LOS ANGELES CA CLEAR     65  60  84 W5        29.99F
BOISE ID       CLEAR     66  32  28 S6        29.93R
SEATTLE WA     CLOUDY    58  51  78 S7        30.04R
$$

*** WEATHER ACROSS MANITOBA...SASKATCHEWAN AND ONTARIO ***
                ***ONTARIO***

CITY           SKY/WX    TMP DP  RH WIND       PRES   REMARKS
GERALDTON      MOCLDY    55  54  94 W2        30.07S
THUNDER BAY    FOG       54  54 100 W5        30.09R VSB 1/2
SIOUX LOOKOUT  MOCLDY    57  55  94 W5        30.05R
TORONTO        PTCLDY    72  63  73 E5        30.10F
BIG TROUT LK   MOCLDY    59  55  88 W3        29.99R
PICKLE LAKE    NOT AVBL
DRYDEN         CLOUDY    55  55 100 SW5       30.05R
KENORA         CLOUDY    57  55  94 SE5       30.03
$$
                *** MANITOBA***

CITY           SKY/WX    TMP DP  RH WIND       PRES   REMARKS
BRANDON        PTCLDY    48  46  93 E8        29.90S
DAUPHIN        CLEAR     50  46  87 VRB2      29.86S
ISLAND LAKE    NOT AVBL
PILOT MOUND      N/A     55  54  94 SE8         N/A
THE PAS        PTCLDY    59  57  94 SE10      29.81S
THOMPSON       PTCLDY    55  54  94 E5        29.88R
WINNIPEG       PTCLDY    55  54  94 SE6       29.96R
LYNN LAKE      CLOUDY    57  54  88 MISG      29.83S
CHURCHILL      PTCLDY    48  48 100 SE8       29.96S
GILLAM         CLEAR     54  54 100 E6        29.93R
$$
                ***SASKATCHEWAN***

CITY           SKY/WX    TMP DP  RH WIND       PRES   REMARKS
ESTEVAN        CLEAR     54  46  76 SE7       29.80S
KINDERSLEY     CLEAR     55  54  94 W10       29.70R
LLOYDMINSTER   CLOUDY    54  52  94 W13       29.68R
PRINCE ALBERT  CLOUDY    61  55  82 E13       29.59F
REGINA         CLOUDY    63  48  59 SE16      29.73S
YORKTON        MOCLDY    59  48  67 SE13G21   29.79S
N. BATTLEFORD  NOT AVBL
LA RONGE       LGT RAIN  59  57  94 E8        29.65F
SASKATOON      MOCLDY    64  52  63 S12       29.60R
SWIFT CURRENT  MOCLDY    63  50  63 W10       29.74R
$$
NOTE: THESE ARE AUTOMATED STATIONS WITH LIMITED QUALITY CONTROL
      "FAIR" INDICATES FEW OR NO CLOUDS BELOW 12,000 FEET WITH NO
      SIGNIFICANT WEATHER AND/OR OBSTRUCTIONS TO VISIBILITY.
      SKY/WX - SKY CONDITION AND SIGNIFICANT WEATHER.
      TMP - AIR TEMPERATURE.    DP   - DEWPOINT TEMPERATURE.
      RH  - RELATIVE HUMIDITY.  PRES - PRESSURE.
      HX  - HEAT INDEX.         WCI  - WIND CHILL INDEX.
$




USA.gov is the U.S. government's official web portal to all federal, state and local government web resources and services.